Iron Mountain, MI

2:50 AM CDT on May 01, 2017 (GMT -0500)
Ford

Weather History for KIMT - November, 2014

Change the Weather History Date:

Friday, November 7, 2014

  Actual Average Record
Temperature  
Mean Temperature 32 °F -  
Max Temperature 37 °F 43 °F 68 °F (1949)
Min Temperature 27 °F 24 °F 0 °F (1991)
Degree Days  
Heating Degree Days 33    
Moisture  
Dew Point 29 °F    
Average Humidity 89    
Maximum Humidity 96    
Minimum Humidity 76    
Precipitation  
Precipitation 0.06 in - - ()
Sea Level Pressure  
Sea Level Pressure 29.96 in    
Wind  
Wind Speed 4 mph (SSE)    
Max Wind Speed 14 mph    
Max Gust Speed 22 mph    
Visibility 5 miles    
Events Fog , Snow    
Averages and records for this station are not official NWS values.
T = Trace of Precipitation, MM = Missing Value Source: NWS Daily Summary

Daily Weather History Graph

Daily Weather History Graph

Search for Another Location

Airport or City:

Trip Planner

Search our weather history database for the weather conditions in past years. The results will help you decide how hot, cold, wet, or windy it might be!

Date:

Astronomy

Nov. 07, 2014 Rise Set
Actual Time 6:41 AM CST 4:30 PM CST
Civil Twilight 6:09 AM CST 5:02 PM CST
Nautical Twilight 5:33 AM CST 5:37 PM CST
Astronomical Twilight 4:59 AM CST 6:12 PM CST
Moon 5:21 PM CST (11/7) 7:16 AM CST (11/7)
Length of Visible Light 10h 52m
Length of Day
9h 49m
Full, 99% of the Moon is Illuminated
Nov 7
Full
Nov 14
Last Quarter
Nov 22
New
Nov 29
First Quarter
Dec 6
Full

Hourly Weather History & Observations

Time (CST) Temp. Windchill Dew Point Humidity Pressure Visibility Wind Dir Wind Speed Gust Speed Precip Events Conditions
12:37 AM 33.1 °F - 30.0 °F 89% 30.13 in 10.0 mi Calm Calm - N/A   Overcast
12:54 AM 33.1 °F - 30.0 °F 89% 30.18 in 9.0 mi Calm Calm - N/A   Overcast
1:04 AM 33.1 °F 27.7 °F 30.0 °F 89% 30.13 in 4.0 mi North 5.8 mph - 0.00 in Snow Light Snow
1:11 AM 33.1 °F 28.7 °F 30.0 °F 89% 30.13 in 3.0 mi North 4.6 mph - 0.00 in Snow Light Snow
1:20 AM 32.0 °F 27.5 °F 30.0 °F 92% 30.13 in 2.0 mi North 4.6 mph - 0.00 in Snow Light Snow
1:36 AM 32.0 °F - 30.0 °F 92% 30.12 in 5.0 mi Calm Calm - 0.00 in Snow Light Snow
1:54 AM 32.0 °F - 30.0 °F 92% 30.16 in 10.0 mi Calm Calm - 0.00 in   Overcast
2:45 AM 30.0 °F 26.5 °F 28.0 °F 92% 30.10 in 10.0 mi SE 3.5 mph - N/A   Overcast
2:54 AM 30.0 °F - 28.0 °F 92% 30.15 in 10.0 mi Calm Calm - N/A   Overcast
3:47 AM 28.0 °F - 26.1 °F 92% 30.10 in 1.8 mi Calm Calm - N/A   Mostly Cloudy
3:54 AM 28.0 °F - 26.1 °F 92% 30.15 in 0.8 mi Calm Calm - N/A   Mostly Cloudy
4:08 AM 28.0 °F - 26.1 °F 92% 30.10 in 0.5 mi Calm Calm - N/A Fog Light Freezing Fog
4:25 AM 27.0 °F - 25.0 °F 92% 30.10 in 1.0 mi Calm Calm - N/A   Overcast
4:32 AM 28.0 °F - 26.1 °F 92% 30.10 in 0.5 mi Calm Calm - N/A Fog Light Freezing Fog
4:54 AM 27.0 °F - 25.0 °F 92% 30.14 in 0.8 mi Calm Calm - N/A   Overcast
5:15 AM 27.0 °F - 25.0 °F 92% 30.09 in 0.2 mi Calm Calm - N/A Fog Light Freezing Fog
5:30 AM 28.0 °F - 26.1 °F 92% 30.09 in 0.2 mi Calm Calm - N/A Fog Light Freezing Fog
5:46 AM 27.0 °F - 26.1 °F 96% 30.08 in 0.8 mi Calm Calm - N/A   Overcast
5:54 AM 28.0 °F - 26.1 °F 92% 30.13 in 0.5 mi Calm Calm - N/A Fog Light Freezing Fog
6:05 AM 27.0 °F - 25.0 °F 92% 30.08 in 0.5 mi Calm Calm - N/A Fog Light Freezing Fog
6:16 AM 27.0 °F - 25.0 °F 92% 30.07 in 2.5 mi Calm Calm - N/A   Overcast
6:23 AM 27.0 °F - 26.1 °F 96% 30.07 in 10.0 mi Calm Calm - N/A   Overcast
6:54 AM 27.0 °F - 26.1 °F 96% 30.12 in 10.0 mi Calm Calm - N/A   Overcast
7:54 AM 30.0 °F 24.1 °F 27.0 °F 88% 30.12 in 10.0 mi SE 5.8 mph - N/A   Overcast
8:20 AM 30.0 °F 26.5 °F 28.0 °F 92% 30.07 in 10.0 mi SE 3.5 mph - N/A   Overcast
8:38 AM 30.9 °F 26.2 °F 28.0 °F 89% 30.07 in 10.0 mi SSE 4.6 mph - N/A   Overcast
8:54 AM 30.9 °F 26.2 °F 28.0 °F 89% 30.12 in 10.0 mi SSE 4.6 mph - N/A   Overcast
9:52 AM 33.8 °F 27.0 °F 28.4 °F 81% 30.06 in 10.0 mi South 8.1 mph - N/A   Scattered Clouds
9:54 AM 33.1 °F 26.1 °F 28.9 °F 85% 30.10 in 10.0 mi South 8.1 mph - N/A   Partly Cloudy
10:15 AM 34.0 °F 27.2 °F 28.9 °F 82% 30.05 in 10.0 mi South 8.1 mph - N/A   Mostly Cloudy
10:54 AM 34.0 °F 27.2 °F 28.0 °F 79% 30.08 in 10.0 mi SSE 8.1 mph - N/A   Overcast
11:54 AM 35.1 °F 28.6 °F 28.9 °F 78% 30.04 in 10.0 mi South 8.1 mph - N/A   Overcast
12:28 PM 36.0 °F 29.6 °F 30.0 °F 79% 29.96 in 10.0 mi SSE 8.1 mph - N/A   Overcast
12:54 PM 36.0 °F 29.0 °F 30.0 °F 79% 29.99 in 10.0 mi SSE 9.2 mph - N/A   Overcast
1:01 PM 35.1 °F 27.4 °F 28.9 °F 78% 29.94 in 10.0 mi SSE 10.4 mph - N/A   Overcast
1:09 PM 36.0 °F 29.6 °F 30.0 °F 79% 29.94 in 10.0 mi South 8.1 mph - N/A   Overcast
1:54 PM 37.0 °F 31.0 °F 30.0 °F 76% 29.94 in 10.0 mi South 8.1 mph - N/A   Overcast
2:23 PM 37.0 °F 31.0 °F 30.0 °F 76% 29.89 in 10.0 mi South 8.1 mph - N/A   Overcast
2:54 PM 37.0 °F 31.6 °F 30.0 °F 76% 29.91 in 10.0 mi South 6.9 mph - N/A   Overcast
3:13 PM 37.0 °F 30.4 °F 30.0 °F 76% 29.85 in 10.0 mi SSE 9.2 mph - N/A   Overcast
3:54 PM 37.0 °F 31.6 °F 30.0 °F 76% 29.88 in 10.0 mi SSE 6.9 mph - N/A   Overcast
4:31 PM 35.1 °F 26.9 °F 30.0 °F 82% 29.82 in 5.0 mi South 11.5 mph - 0.00 in Snow Light Snow
4:54 PM 34.0 °F 27.2 °F 30.9 °F 89% 29.88 in 3.0 mi South 8.1 mph - 0.00 in Snow Light Snow
5:04 PM 33.1 °F 25.5 °F 30.9 °F 92% 29.83 in 2.5 mi South 9.2 mph - 0.00 in Snow Light Snow
5:11 PM 33.1 °F 25.5 °F 30.9 °F 92% 29.83 in 1.8 mi South 9.2 mph - 0.00 in Snow Light Snow
5:19 PM 33.1 °F 26.1 °F 30.9 °F 92% 29.82 in 2.0 mi South 8.1 mph - 0.00 in Snow Light Snow
5:30 PM 33.1 °F 26.9 °F 30.9 °F 92% 29.81 in 1.5 mi South 6.9 mph - 0.00 in Snow Light Snow
5:54 PM 33.1 °F 25.5 °F 30.9 °F 92% 29.84 in 2.0 mi SSE 9.2 mph - 0.00 in Snow Light Snow
6:06 PM 33.1 °F 24.4 °F 30.9 °F 92% 29.78 in 1.2 mi SE 11.5 mph - 0.00 in Snow Light Snow
6:43 PM 33.1 °F 26.9 °F 30.9 °F 92% 29.78 in 0.8 mi SSE 6.9 mph - 0.02 in Snow Light Snow
6:54 PM 33.1 °F 26.1 °F 30.9 °F 92% 29.83 in 1.0 mi South 8.1 mph - 0.03 in Snow Light Snow
7:26 PM 33.1 °F 24.4 °F 30.9 °F 92% 29.78 in 2.0 mi South 11.5 mph - 0.01 in Snow Light Snow
7:33 PM 33.1 °F 23.9 °F 30.9 °F 92% 29.77 in 1.2 mi SSE 12.7 mph - 0.02 in Snow Light Snow
7:54 PM 33.1 °F 24.4 °F 30.9 °F 92% 29.81 in 1.2 mi South 11.5 mph 21.9 mph 0.02 in Snow Light Snow
8:01 PM 33.1 °F 24.9 °F 30.9 °F 92% 29.75 in 3.0 mi South 10.4 mph 17.3 mph 0.00 in Snow Light Snow
8:31 PM 33.1 °F 23.9 °F 30.9 °F 92% 29.74 in 1.8 mi South 12.7 mph - 0.00 in Snow Light Snow
8:54 PM 33.1 °F 23.4 °F 30.9 °F 92% 29.77 in 1.5 mi South 13.8 mph - 0.00 in Snow Light Snow
9:54 PM 33.1 °F 23.9 °F 30.9 °F 92% 29.73 in 1.2 mi South 12.7 mph 21.9 mph 0.01 in Snow Light Snow
10:26 PM 33.1 °F 26.1 °F 30.9 °F 92% 29.67 in 2.5 mi South 8.1 mph - 0.00 in Snow Light Snow
10:54 PM 33.1 °F 24.9 °F 30.9 °F 92% 29.69 in 5.0 mi South 10.4 mph - 0.00 in Snow Light Snow
11:27 PM 33.1 °F 23.9 °F 30.9 °F 92% 29.63 in 2.5 mi South 12.7 mph 17.3 mph 0.00 in Snow Light Snow
11:35 PM 33.1 °F 25.5 °F 30.9 °F 92% 29.63 in 4.0 mi South 9.2 mph - 0.00 in Snow Light Snow
11:54 PM 33.1 °F 25.5 °F 30.9 °F 92% 29.67 in 2.5 mi South 9.2 mph - 0.00 in Snow Light Snow